Shanghai Hongqiao International Airport
ZSSS : now visible

Airfield :











YOU CAN JOIN US ON...

 
LOGIN :

Register | Disclaimer

   EN    FR    IT 

 









Legend :    VFR   Marginal VFR   IFR   Intensive IFR   Very Intensive IFR
Visi :
Ceiling :
>= 8 km
>= 3000ft
5 to 8 km
1000 to 3000 ft
1500m to 5 km
500 to 1000 ft
800 to 1500m
200 to 500 ft
< 800m
< 200 ft
Symbols :   Thunderstorms  Fog  Heavy snow  Heavy precipitations  Wind > 20 kt






- Airport Elevation : 10 ft
- IATA code : SHA


ZSSS - Shanghai Hongqiao International

CURRENT METAR :
  • 290130Z 07005MPS 050V110 9999 FEW020 20/11 Q1026 NOSIG

EXPIRED METARs :
  • 290100Z 08005MPS CAVOK 19/11 Q1026 NOSIG
  • 290030Z 07004MPS 040V100 CAVOK 19/12 Q1026 NOSIG
  • 290000Z 05002MPS 010V100 CAVOK 19/12 Q1025 NOSIG
  • 282330Z 05003MPS 010V090 CAVOK 18/12 Q1025 NOSIG
  • 282300Z 06003MPS 030V090 CAVOK 18/12 Q1025 NOSIG

TAF TAF ZSSS
Valid from the 29 at 00:00 until the 30 at 00:00 UTC


282106Z 2900/2924 04004MPS 6000 BKN020 TX21/2906Z TN16/2919Z
ZSHA FIR / Asia



MET'MAP, your aeronautical weather chart ! - Copyright ORBIFLY December 2007 - Disclaimer

ORBIFLY MET'MAP TEAM :

Programming & Development : Alexandra Zaïnal
Concept & original design : Baudouin d'Aumeries
Assistance for programming : Marc-Olivier Méhu
Technical & hardware support : Manuel Goepfert

Contact : metmap@orbifly.com




SOURCES & CREDITS :

   NOAA       Earth
Advisory